, AK

(GMT )
Northway

Weather History for PAOR - December, 2013

Change the Weather History Date:

Wednesday, December 11, 2013

  Actual Average Record
Temperature  
Mean Temperature 5 °F -  
Max Temperature 7 °F -10 °F 19 °F (1963)
Min Temperature 3 °F -23 °F -64 °F (1956)
Degree Days  
Heating Degree Days 60    
Moisture  
Dew Point -3 °F    
Average Humidity 71    
Maximum Humidity 84    
Minimum Humidity 55    
Precipitation  
Precipitation 0.00 in - - ()
Snow  
Snow 0.00 in - - ()
Snow Depth 6.00 in    
Sea Level Pressure  
Sea Level Pressure 30.11 in    
Wind  
Wind Speed 6 mph (NE)    
Max Wind Speed 13 mph    
Max Gust Speed 16 mph    
Visibility 5 miles    
Events Snow    
Averages and records for this station are not official NWS values.
T = Trace of Precipitation, MM = Missing Value Source: NWS Daily Summary

Daily Weather History Graph

Daily Weather History Graph

Search for Another Location

Airport or City:

Trip Planner

Search our weather history database for the weather conditions in past years. The results will help you decide how hot, cold, wet, or windy it might be!

Date:

Astronomy

Dec. 11, 2013 Rise Set
Actual Time 9:53 AM AKST 2:48 PM AKST
Civil Twilight 8:44 AM AKST 3:58 PM AKST
Nautical Twilight 7:39 AM AKST 5:02 PM AKST
Astronomical Twilight 6:42 AM AKST 5:59 PM AKST
Moon 1:00 PM AKST (12/11) 2:42 AM AKST (12/11)
Length of Visible Light 7h 14m
Length of Day
4h 55m
Waxing Gibbous, 73% of the Moon is Illuminated
Dec 11
Waxing Gibbous
Dec 17
Full
Dec 25
Last Quarter
Jan 1
New
Jan 7
First Quarter

Hourly Weather History & Observations

Time (AKST) Temp. Windchill Dew Point Humidity Pressure Visibility Wind Dir Wind Speed Gust Speed Precip Events Conditions
12:53 AM 7.0 °F -4.5 °F 1.9 °F 80% 30.25 in 2.5 mi NW 6.9 mph - N/A Snow Light Snow
1:50 AM 6.8 °F -3.5 °F 1.4 °F 79% 30.08 in 5.0 mi NW 5.8 mph - N/A Snow Light Snow
1:53 AM 6.1 °F -6.8 °F 1.0 °F 80% 30.24 in 5.0 mi NW 8.1 mph - N/A Snow Light Snow
2:53 AM 6.1 °F -6.8 °F 1.0 °F 80% 30.22 in 4.0 mi NW 8.1 mph - N/A Snow Light Snow
3:53 AM 5.0 °F -6.9 °F -0.0 °F 80% 30.21 in 5.0 mi NW 6.9 mph - N/A Snow Light Snow
4:53 AM 3.9 °F -5.3 °F -0.0 °F 84% 30.18 in 4.0 mi WNW 4.6 mph - N/A Snow Light Snow
5:53 AM 3.9 °F -5.3 °F -0.0 °F 84% 30.17 in 5.0 mi NW 4.6 mph - N/A Snow Light Snow
6:53 AM 6.1 °F - -0.9 °F 73% 30.16 in 9.0 mi Calm Calm - N/A Snow Light Snow
7:53 AM 5.0 °F - -0.9 °F 76% 30.15 in 9.0 mi Calm Calm - N/A Snow Light Snow
8:53 AM 6.1 °F -0.9 °F -2.0 °F 69% 30.14 in 8.0 mi NE 3.5 mph - N/A Snow Light Snow
9:53 AM 6.1 °F - -2.0 °F 69% 30.13 in 5.0 mi Calm Calm - N/A Snow Light Snow
10:53 AM 6.1 °F -5.6 °F -5.1 °F 60% 30.12 in 9.0 mi ENE 6.9 mph - N/A Snow Light Snow
11:53 AM 6.1 °F -6.8 °F -5.1 °F 60% 30.11 in 9.0 mi ENE 8.1 mph - N/A Snow Light Snow
12:53 PM 6.1 °F -5.6 °F -7.1 °F 55% 30.09 in 9.0 mi East 6.9 mph - N/A Snow Light Snow
1:53 PM 5.0 °F -9.1 °F -7.1 °F 58% 30.08 in 9.0 mi NE 9.2 mph - N/A Snow Light Snow
2:53 PM 5.0 °F -5.6 °F -7.1 °F 58% 30.07 in 9.0 mi NE 5.8 mph - N/A Snow Light Snow
3:53 PM 5.0 °F -5.6 °F -7.1 °F 58% 30.06 in 5.0 mi ENE 5.8 mph 16.1 mph N/A Snow Light Snow
4:53 PM 3.9 °F -6.9 °F -4.0 °F 70% 30.06 in 3.0 mi ENE 5.8 mph - N/A Snow Light Snow
5:53 PM 3.9 °F -6.9 °F -4.0 °F 70% 30.06 in 4.0 mi ENE 5.8 mph - N/A Snow Light Snow
6:53 PM 3.9 °F -8.2 °F -4.0 °F 70% 30.04 in 3.0 mi East 6.9 mph - N/A Snow Light Snow
7:53 PM 3.9 °F -9.4 °F -4.0 °F 70% 30.04 in 3.0 mi East 8.1 mph - N/A Snow Light Snow
8:53 PM 3.9 °F -10.4 °F -2.9 °F 73% 30.04 in 3.0 mi East 9.2 mph - N/A Snow Light Snow
9:53 PM 3.9 °F -13.0 °F -2.9 °F 73% 30.03 in 2.5 mi East 12.7 mph - N/A Snow Light Snow
10:53 PM 3.9 °F -10.4 °F -2.9 °F 73% 30.02 in 3.0 mi East 9.2 mph - N/A Snow Light Snow
11:53 PM 3.9 °F -11.3 °F -2.9 °F 73% 30.02 in 3.0 mi East 10.4 mph - N/A Snow Light Snow